Regional Weather Roundup
Issued by NWS Green Bay, WI

Home | Current Version | Previous Version | Graphics & Text | Print | Product List | Glossary Off
Versions: 1 2 3 4 5 6 7 8 9 10 11 12 13 14 15 16 17 18 19 20 21 22 23 24 25 26 27 28 29 30 31 32 33 34 35 36 37 38 39 40 41 42 43 44 45 46 47 48 49 50

000
ASUS43 KGRB 301800
RWRGRB

NORTH-CENTRAL AND NORTHEAST WISCONSIN REGIONAL WEATHER ROUNDUP
NATIONAL WEATHER SERVICE GREEN BAY WI
100 PM CDT SAT APR 30 2016

WIZ005-009-010>012-018-019-301900-
NORTH CENTRAL WISCONSIN

CITY           SKY/WX    TMP DP  RH WIND       PRES   REMARKS
IRONWOOD         N/A     50  34  53 NE9G21    30.17F
MANITOWISH WTR NOT AVBL
ARBOR VITAE    NOT AVBL
EAGLE RIVER    NOT AVBL
LAND O LAKES   NOT AVBL
RHINELANDER    PTSUNNY   55  31  39 NE8       30.13F
PHILLIPS       MOSUNNY   54  32  43 NE10G24   30.12F
ANTIGO         NOT AVBL
TOMAHAWK       NOT AVBL
MERRILL        NOT AVBL
$$

WIZ013-073-301900-
NORTHEAST WISCONSIN

CITY           SKY/WX    TMP DP  RH WIND       PRES   REMARKS
IRON MOUNTAIN  CLOUDY    56  31  38 NE9       30.14F
MARINETTE      PTSUNNY   52  32  46 E16       30.15F
$$

WIZ017-030-035>037-045-301900-
CENTRAL WISCONSIN

CITY           SKY/WX    TMP DP  RH WIND       PRES   REMARKS
MEDFORD        NOT AVBL
WAUSAU         CLOUDY    56  30  37 E16       30.07F
MOSINEE        SUNNY     52  32  46 E13G20    30.11F
MARSHFIELD     CLOUDY    53  33  46 E13       30.06F
WISC RAPIDS    CLOUDY    53  33  46 E15       30.08F
STEVENS POINT  NOT AVBL
WAUPACA        NOT AVBL
SHAWANO        NOT AVBL
CLINTONVILLE   NOT AVBL
WAUTOMA        CLOUDY    52  36  54 E15G23    30.07
$$

WIZ038-039-048-051-301900-
FOX VALLEY

CITY           SKY/WX    TMP DP  RH WIND       PRES   REMARKS
NWS GREEN BAY  CLOUDY    52  38  58 NE15      30.12F
APPLETON       CLOUDY    54  34  47 E14       30.09F
OSHKOSH        CLOUDY    53  37  54 E14       30.09F
FOND DU LAC    CLOUDY    53  36  52 E16G22    30.07F
$$

WIZ022-050-052-301900-
EAST CENTRAL WISCONSIN

CITY           SKY/WX    TMP DP  RH WIND       PRES   REMARKS
EPHRAIM        NOT AVBL
STURGEON BAY   CLOUDY    48  34  57 NE12      30.17F
MANITOWOC      NOT AVBL
SHEBOYGAN      CLOUDY    49  39  68 E12       30.10F
$$

LMZ563-521-522-541>543-301900-
LAKESHORE

STATION/POSITION TIME  TEMP    WIND        PRES    VSBY  WAVE
                       AIR SEA DIR/SP/G                  HT/PER
                 (UTC) (F)     (DEG/KT/KT) (MB)    (MI)  (FT/S)
SHEBOYGAN LKSHOR 1700   41      20/ 10/ 11 1020.9F
KEWAUNEE LKSHORE 1700   42      30/ 12/ 15 1020.7F
NORTHPORT PIER   1700   43      70/ 10/ 12 1022.0F
N MID LAKE BUOY  1650   39 39   20/ 10/ 12 1022.5F         1/ 3
CHAMBERS ISLAND  1700   44      20/ 10/ 13 1022.0F
MENOMINEE LKSHOR 1700   43      20/ 13/ 15 1020.6F
$$




USA.gov is the U.S. government's official web portal to all federal, state and local government web resources and services.